• In India
  • List of Countries
  • For 7 days
  • Water Temperature
  • Satellite Maps
  • Weather Map
  • Weather Widgets
  • user-avatar
    Login

    Hourly Weather Popivka

    Today, 20 February, Wednesday

    Time Temperature Precipitation Wind Pressure Humidity
    00:00 -2°C° 0 mm 5 mps 767 mmHg 74%
    01:00 -2°C° 0 mm 4 mps 767 mmHg 74%
    02:00 -1°C° 0 mm 3 mps 766 mmHg 76%
    03:00 -1°C° 0 mm 3 mps 766 mmHg 76%
    04:00 -1°C° 0 mm 3 mps 765 mmHg 77%
    05:00 -1°C° 0 mm 3 mps 765 mmHg 78%
    06:00 0°C° 0 mm 3 mps 765 mmHg 77%
    07:00 0°C° 0 mm 3 mps 764 mmHg 77%
    08:00 +1°C° 0 mm 3 mps 764 mmHg 76%
    09:00 +2°C° 0 mm 3 mps 764 mmHg 70%
    10:00 +4°C° 0 mm 3 mps 764 mmHg 64%
    11:00 +5°C° 0 mm 3 mps 763 mmHg 58%
    12:00 +7°C° 0 mm 3 mps 763 mmHg 55%
    13:00 +8°C° 0 mm 3 mps 762 mmHg 52%
    14:00 +9°C° 0 mm 3 mps 762 mmHg 49%
    15:00 +8°C° 0 mm 3 mps 762 mmHg 54%
    16:00 +8°C° 0 mm 3 mps 762 mmHg 60%
    17:00 +7°C° 0 mm 3 mps 761 mmHg 66%
    18:00 +5°C° 0 mm 3 mps 761 mmHg 73%
    19:00 +5°C° 0 mm 3 mps 761 mmHg 81%
    20:00 +4°C° 0 mm 4 mps 761 mmHg 89%
    21:00 +4°C° 0 mm 4 mps 761 mmHg 88%
    22:00 +4°C° 0 mm 4 mps 761 mmHg 88%
    23:00 +5°C° 0 mm 4 mps 761 mmHg 88%

    Tomorrow, 21 February, Thursday

    Time Temperature Precipitation Wind Pressure Humidity
    00:00 +5°C° 0.1 mm 4 mps 761 mmHg 89%
    01:00 +5°C° 0.1 mm 4 mps 761 mmHg 91%
    02:00 +5°C° 0.1 mm 4 mps 761 mmHg 92%
    03:00 +5°C° 0 mm 4 mps 761 mmHg 87%
    04:00 +4°C° 0 mm 4 mps 761 mmHg 83%
    05:00 +3°C° 0 mm 5 mps 761 mmHg 78%
    06:00 +3°C° 0 mm 5 mps 761 mmHg 76%
    07:00 +3°C° 0 mm 5 mps 762 mmHg 74%
    08:00 +2°C° 0 mm 5 mps 762 mmHg 71%
    09:00 +4°C° 0 mm 6 mps 762 mmHg 63%
    10:00 +5°C° 0 mm 7 mps 762 mmHg 54%
    11:00 +6°C° 0 mm 8 mps 762 mmHg 46%
    12:00 +6°C° 0 mm 8 mps 762 mmHg 47%
    13:00 +6°C° 0 mm 9 mps 762 mmHg 48%
    14:00 +6°C° 0 mm 9 mps 761 mmHg 49%
    15:00 +6°C° 0 mm 9 mps 762 mmHg 50%
    16:00 +5°C° 0 mm 8 mps 762 mmHg 51%
    17:00 +5°C° 0 mm 8 mps 762 mmHg 52%
    18:00 +4°C° 0 mm 7 mps 762 mmHg 53%
    19:00 +3°C° 0 mm 6 mps 763 mmHg 54%
    20:00 +2°C° 0 mm 5 mps 764 mmHg 56%
    21:00 +1°C° 0 mm 4 mps 764 mmHg 57%
    22:00 +1°C° 0 mm 3 mps 764 mmHg 59%
    23:00 +2°C° 0 mm 2 mps 764 mmHg 60%

    Day after tomorrow, 22 February, Friday

    Time Temperature Precipitation Wind Pressure Humidity
    00:00 +1°C° 0 mm 2 mps 764 mmHg 60%
    01:00 +1°C° 0 mm 2 mps 764 mmHg 60%
    02:00 +1°C° 0 mm 2 mps 764 mmHg 61%
    03:00 +1°C° 0 mm 2 mps 764 mmHg 62%
    04:00 -1°C° 0 mm 2 mps 763 mmHg 62%
    05:00 -1°C° 0 mm 2 mps 763 mmHg 63%
    06:00 +1°C° 0 mm 2 mps 763 mmHg 63%
    07:00 +2°C° 0 mm 2 mps 763 mmHg 62%
    08:00 +3°C° 0 mm 2 mps 762 mmHg 62%
    09:00 +3°C° 0.2 mm 3 mps 762 mmHg 64%
    10:00 +3°C° 0.2 mm 3 mps 761 mmHg 66%
    11:00 +4°C° 0.2 mm 4 mps 761 mmHg 69%
    12:00 +5°C° 0.4 mm 4 mps 760 mmHg 69%
    13:00 +5°C° 0.4 mm 4 mps 759 mmHg 70%
    14:00 +6°C° 0.4 mm 4 mps 759 mmHg 70%
    15:00 +5°C° 0.7 mm 3 mps 758 mmHg 75%
    16:00 +5°C° 0.7 mm 3 mps 758 mmHg 79%
    17:00 +5°C° 0.7 mm 2 mps 758 mmHg 84%
    18:00 +2°C° 1.3 mm 5 mps 758 mmHg 86%
    19:00 -1°C° 1.3 mm 7 mps 758 mmHg 89%
    20:00 -3°C° 1.3 mm 10 mps 758 mmHg 91%
    21:00 -6°C° 0.9 mm 11 mps 758 mmHg 91%
    22:00 -7°C° 0.9 mm 12 mps 758 mmHg 91%
    23:00 -10°C° 0.9 mm 13 mps 759 mmHg 90%

    23 February, Saturday

    Time Temperature Precipitation Wind Pressure Humidity
    00:00 -11°C° 0.7 mm 12 mps 759 mmHg 90%
    01:00 -11°C° 0.7 mm 12 mps 760 mmHg 90%
    02:00 -12°C° 0.7 mm 12 mps 760 mmHg 90%
    03:00 -13°C° 0.4 mm 12 mps 761 mmHg 89%
    04:00 -13°C° 0.4 mm 12 mps 761 mmHg 88%
    05:00 -13°C° 0.4 mm 12 mps 761 mmHg 87%
    06:00 -13°C° 0.1 mm 11 mps 762 mmHg 86%
    07:00 -13°C° 0.1 mm 11 mps 763 mmHg 85%
    08:00 -13°C° 0.1 mm 11 mps 764 mmHg 84%
    09:00 -13°C° 0 mm 10 mps 764 mmHg 82%
    10:00 -12°C° 0 mm 10 mps 765 mmHg 81%
    11:00 -11°C° 0 mm 9 mps 765 mmHg 79%
    12:00 -10°C° 0 mm 9 mps 766 mmHg 78%
    13:00 -10°C° 0 mm 9 mps 766 mmHg 78%
    14:00 -10°C° 0 mm 8 mps 766 mmHg 77%
    15:00 -10°C° 0 mm 8 mps 767 mmHg 76%
    16:00 -10°C° 0 mm 8 mps 767 mmHg 76%
    17:00 -11°C° 0 mm 8 mps 768 mmHg 75%
    18:00 -11°C° 0 mm 8 mps 768 mmHg 76%
    19:00 -11°C° 0 mm 7 mps 768 mmHg 77%
    20:00 -12°C° 0 mm 7 mps 769 mmHg 78%
    21:00 -12°C° 0 mm 7 mps 769 mmHg 79%
    22:00 -12°C° 0 mm 7 mps 769 mmHg 81%
    23:00 -12°C° 0 mm 6 mps 769 mmHg 82%

    24 February, Sunday

    Time Temperature Precipitation Wind Pressure Humidity
    00:00 -12°C° 0 mm 6 mps 769 mmHg 83%
    01:00 -12°C° 0 mm 6 mps 769 mmHg 84%
    02:00 -12°C° 0 mm 6 mps 769 mmHg 84%
    03:00 -12°C° 0 mm 6 mps 769 mmHg 85%
    04:00 -12°C° 0 mm 6 mps 769 mmHg 85%
    05:00 -12°C° 0 mm 6 mps 769 mmHg 85%
    06:00 -12°C° 0 mm 6 mps 769 mmHg 85%
    07:00 -11°C° 0 mm 6 mps 769 mmHg 85%
    08:00 -11°C° 0 mm 6 mps 769 mmHg 85%
    09:00 -11°C° 0 mm 6 mps 769 mmHg 85%
    10:00 -10°C° 0 mm 6 mps 769 mmHg 84%
    11:00 -10°C° 0 mm 5 mps 770 mmHg 84%
    12:00 -9°C° 0 mm 6 mps 769 mmHg 84%
    13:00 -9°C° 0 mm 6 mps 769 mmHg 84%
    14:00 -8°C° 0 mm 6 mps 769 mmHg 83%
    15:00 -8°C° 0 mm 6 mps 769 mmHg 84%
    16:00 -8°C° 0 mm 6 mps 769 mmHg 84%
    17:00 -7°C° 0 mm 5 mps 769 mmHg 85%
    18:00 -8°C° 0 mm 6 mps 769 mmHg 85%
    19:00 -9°C° 0 mm 6 mps 770 mmHg 85%
    20:00 -9°C° 0 mm 6 mps 770 mmHg 85%
    21:00 -9°C° 0 mm 6 mps 770 mmHg 85%
    22:00 -9°C° 0 mm 6 mps 770 mmHg 85%
    23:00 -10°C° 0 mm 6 mps 770 mmHg 85%

    25 February, Monday

    Time Temperature Precipitation Wind Pressure Humidity
    00:00 -10°C° 0 mm 6 mps 770 mmHg 86%
    01:00 -10°C° 0 mm 6 mps 770 mmHg 87%
    02:00 -10°C° 0 mm 6 mps 770 mmHg 87%
    03:00 -10°C° 0 mm 6 mps 769 mmHg 88%
    04:00 -10°C° 0 mm 6 mps 769 mmHg 88%
    05:00 -11°C° 0 mm 7 mps 769 mmHg 89%
    06:00 -10°C° 0 mm 6 mps 769 mmHg 89%
    07:00 -10°C° 0 mm 6 mps 769 mmHg 88%
    08:00 -10°C° 0 mm 6 mps 769 mmHg 88%
    09:00 -9°C° 0 mm 6 mps 769 mmHg 87%
    10:00 -9°C° 0 mm 6 mps 768 mmHg 86%
    11:00 -7°C° 0 mm 5 mps 768 mmHg 86%
    12:00 -6°C° 0 mm 6 mps 767 mmHg 85%
    13:00 -6°C° 0 mm 6 mps 767 mmHg 85%
    14:00 -5°C° 0 mm 6 mps 766 mmHg 85%
    15:00 -5°C° 0 mm 6 mps 765 mmHg 85%
    16:00 -5°C° 0 mm 6 mps 765 mmHg 85%
    17:00 -6°C° 0 mm 6 mps 764 mmHg 85%
    18:00 -7°C° 0 mm 7 mps 764 mmHg 84%
    19:00 -7°C° 0 mm 7 mps 764 mmHg 83%
    20:00 -8°C° 0 mm 7 mps 764 mmHg 82%
    21:00 -8°C° 0 mm 7 mps 763 mmHg 81%
    22:00 -8°C° 0 mm 7 mps 762 mmHg 81%
    23:00 -9°C° 0 mm 7 mps 762 mmHg 81%
    Show more